Wind_Speed
2 4 4 6 5 5 8 9 6 8 11 14 17 18 18 18 18 18 19 21 22 23 24 24 23 23 22 21 20 19 18 17 17 16 16 17 17 18 19 19 18 18 17 17 15 14 15 15 17 18 14 14 13 10 11 11 9 7 9 11 9 8 8 7 7 5 3 3 4 4 3 1 1 0 1 2 1 0 0 1 2 3 3 5 8
2 2 3 6 7 7 9 9 5 8 11 10 12 15 16 17 17 18 19 21 22 22 24 25 24 23 22 20 18 17 17 16 15 14 13 14 14 15 16 16 16 15 15 15 13 13 15 16 20 19 14 12 12 12 13 12 10 9 10 11 9 7 7 8 8 6 4 5 6 6 4 3 3 2 1 1 1 1 0 2 3 4 3 4 6
3 3 4 5 7 7 8 7 3 5 8 7 9 12 14 14 15 17 19 21 22 22 24 25 24 24 22 19 16 15 16 15 13 12 12 13 14 14 15 15 15 14 13 12 11 12 14 17 21 21 15 13 13 15 15 13 11 10 10 11 10 8 7 7 7 6 6 7 6 6 5 6 5 2 2 2 1 1 1 2 3 4 5 5 6
5 6 7 6 6 6 8 7 3 4 8 8 9 11 12 13 13 15 18 21 21 21 24 24 24 25 23 20 17 16 16 16 14 13 14 15 15 16 15 15 15 14 13 12 11 11 14 18 23 23 18 16 16 17 16 15 12 12 11 11 10 9 7 6 7 6 6 7 6 5 6 7 5 3 4 2 1 1 2 2 1 2 5 6 6
7 7 7 6 5 5 7 7 3 4 7 8 10 10 10 11 11 11 14 19 21 20 22 21 21 23 21 20 19 18 18 18 17 16 16 17 17 18 17 16 15 15 14 13 11 11 13 18 23 25 22 19 19 18 17 17 15 14 12 9 9 8 6 7 9 9 8 7 7 6 6 5 5 5 5 2 1 2 1 1 1 1 3 4 5
11 11 9 7 4 2 4 5 2 3 5 6 8 10 10 11 11 10 11 16 20 21 21 20 21 21 20 20 21 21 20 19 19 17 17 18 19 19 18 17 17 16 14 14 13 12 13 17 21 25 24 22 21 19 18 19 18 15 12 10 10 8 8 10 11 11 10 9 9 8 8 7 7 6 4 2 2 2 0 1 1 2 2 3 4
14 12 10 8 6 4 2 4 6 6 5 4 4 6 7 10 11 11 13 16 19 24 23 22 25 23 20 20 21 23 23 20 19 17 16 17 19 19 18 17 16 16 15 15 14 13 14 17 20 23 24 23 22 19 18 19 17 15 12 11 10 8 10 12 12 13 12 11 10 9 9 10 9 6 4 4 3 2 1 0 1 2 2 2 3
14 11 9 7 5 4 2 2 5 7 8 6 5 3 4 7 9 11 12 14 16 23 25 25 27 25 22 21 21 23 25 22 20 19 18 17 19 18 17 17 17 17 17 16 14 13 15 18 20 22 24 24 23 20 18 17 15 14 13 12 11 10 11 12 12 12 12 11 11 11 10 9 9 8 7 6 4 3 2 1 1 2 3 3 4
14 12 10 7 5 4 3 1 1 3 4 5 5 5 5 6 8 10 11 10 12 19 23 25 26 23 22 23 23 24 24 23 21 20 19 19 20 20 20 19 19 18 18 17 15 13 15 18 20 21 23 25 24 22 20 17 14 14 14 13 11 11 11 11 11 12 13 14 14 12 10 9 10 10 9 8 6 5 4 2 2 3 3 4 5
15 14 11 9 7 4 2 2 2 2 3 4 5 6 6 7 9 11 13 11 11 15 19 24 26 23 22 24 25 25 25 24 23 21 20 20 20 21 21 20 19 19 18 17 16 14 14 17 20 20 22 24 24 24 22 19 16 14 14 14 13 13 12 13 13 14 16 15 12 11 10 10 11 11 11 9 7 6 6 5 5 5 5 3 4
18 17 15 12 9 7 5 4 3 3 3 5 6 6 7 8 9 10 12 12 12 11 13 17 22 25 25 25 26 26 26 25 24 23 21 20 21 22 22 20 18 19 20 19 19 17 15 16 18 20 21 22 24 24 24 22 19 16 14 14 14 14 14 14 14 15 15 13 10 10 11 11 13 13 11 9 8 8 8 8 7 7 7 4 4
19 19 18 16 14 13 12 11 10 9 7 7 6 6 7 8 9 9 10 12 12 11 11 12 15 19 22 25 27 27 27 27 26 24 22 22 23 23 23 21 18 18 20 21 21 19 18 16 16 19 21 23 23 24 24 24 22 19 16 16 16 16 16 16 16 14 12 12 12 12 12 13 14 13 10 8 8 8 8 8 7 7 7 5 4
20 20 19 19 19 19 18 17 16 14 13 12 10 8 8 9 9 10 11 11 12 13 12 12 13 14 17 21 25 27 29 30 28 26 24 23 24 24 24 24 22 19 18 20 21 19 19 19 17 18 20 22 22 22 22 22 24 23 21 19 18 18 18 17 18 16 13 12 12 12 13 14 14 12 10 8 8 8 8 7 6 6 7 6 5
22 22 21 21 20 21 22 22 20 19 17 15 14 13 12 12 11 10 11 12 13 14 14 14 13 13 15 17 20 24 28 30 30 28 25 24 25 24 24 25 25 23 19 18 18 18 19 19 19 18 18 19 20 19 19 19 21 24 23 21 20 19 17 16 17 17 14 13 13 14 15 15 14 12 10 10 9 10 9 9 8 8 8 8 8
21 22 22 21 21 21 22 23 24 23 21 20 19 18 15 15 14 13 12 11 12 13 13 14 14 14 15 16 18 22 25 27 28 28 27 26 26 25 25 26 27 26 22 18 16 17 18 19 19 19 17 18 19 18 18 18 19 20 21 21 22 20 17 15 16 17 16 15 14 14 16 16 15 13 13 13 13 12 11 10 10 10 11 11 11
20 21 22 22 20 20 22 23 23 23 22 23 23 22 20 18 18 17 16 14 13 12 12 13 14 15 16 15 16 20 23 25 26 28 29 29 29 28 26 26 28 28 24 20 17 16 17 19 20 20 19 18 19 19 19 19 18 18 19 19 21 22 20 18 17 17 18 17 15 14 15 16 15 14 15 16 16 15 13 12 11 12 13 14 14
18 18 20 21 19 19 21 21 20 20 21 21 21 22 22 21 20 19 18 16 15 14 14 13 13 13 14 15 16 18 20 22 24 26 28 28 29 29 26 25 27 29 28 24 21 19 19 20 22 22 21 20 21 21 21 21 20 19 19 19 20 22 22 21 20 20 21 20 18 16 16 17 16 16 17 17 17 17 16 15 14 13 13 15 15
15 15 17 20 19 19 21 21 20 19 19 19 20 20 20 19 20 20 19 18 17 16 15 15 13 13 13 14 16 17 18 20 21 22 24 26 28 29 28 25 25 27 29 28 26 25 24 24 23 24 24 23 23 23 23 23 22 21 21 22 22 23 24 24 23 23 23 23 21 19 18 17 16 16 16 16 16 16 16 17 16 15 15 16 16
13 14 17 20 21 20 21 22 21 20 19 18 19 19 18 17 17 18 18 18 18 17 16 15 15 15 14 14 14 15 15 17 18 19 21 24 26 27 28 26 25 26 27 29 29 30 29 27 26 27 26 25 25 25 25 25 24 25 24 25 25 25 26 26 26 25 25 25 24 22 19 18 17 16 15 14 15 15 15 16 17 17 17 18 16
17 15 16 19 21 21 21 21 21 21 19 19 18 17 18 17 15 15 15 16 15 15 15 14 14 14 15 15 14 13 12 13 16 18 20 21 22 24 26 26 26 27 28 28 30 31 30 30 30 29 29 28 27 27 27 26 26 27 27 27 28 28 28 27 26 26 26 26 26 23 21 19 18 17 16 15 15 16 18 18 18 18 18 18 16
18 17 17 19 21 21 21 20 20 21 20 20 20 19 18 18 17 15 14 14 14 14 14 13 12 12 13 14 15 13 10 10 14 17 18 19 19 21 24 25 27 29 30 30 29 29 29 29 29 29 29 28 28 29 30 29 28 28 27 27 27 28 28 27 25 25 25 26 25 23 21 20 18 18 18 17 16 17 20 21 20 20 19 19 17
18 17 18 19 20 21 22 21 21 22 22 22 23 22 19 19 20 17 14 14 15 16 15 14 12 11 11 11 13 14 12 11 13 16 17 17 18 20 22 24 26 28 30 31 30 28 27 27 27 29 29 29 29 31 32 32 31 29 28 26 26 27 27 25 24 23 23 23 23 23 22 20 19 19 19 18 17 16 18 20 20 21 21 20 18
15 15 16 18 20 22 23 22 22 23 23 23 24 23 20 20 21 19 15 14 15 16 17 17 15 14 12 10 10 12 13 12 14 16 17 17 18 20 22 23 24 25 28 31 30 29 28 28 29 30 30 30 31 31 30 32 32 31 29 28 27 27 26 25 24 23 22 21 21 22 22 20 19 19 19 18 18 18 19 20 20 20 20 20 19
12 10 12 17 20 23 23 21 21 22 22 23 23 23 21 19 21 21 18 16 17 17 18 18 18 17 15 13 10 10 12 14 15 17 18 18 19 20 22 23 22 22 25 28 30 30 29 29 30 31 31 31 32 32 30 31 33 33 31 30 29 28 27 26 25 23 22 21 21 21 20 19 18 19 20 19 18 19 20 21 21 21 21 20 20
9 8 11 15 17 20 21 20 19 21 21 21 21 22 21 20 22 21 19 19 19 19 19 19 19 19 19 16 13 11 13 14 15 17 18 19 20 21 22 22 22 22 24 26 28 30 30 30 30 30 31 31 31 32 32 31 32 34 32 30 29 28 27 27 26 25 23 22 21 21 20 19 20 21 21 19 19 20 20 20 21 22 21 20 20
8 8 10 13 14 16 17 17 18 21 22 21 20 19 18 20 23 21 19 20 21 21 21 21 20 20 20 19 17 14 13 14 15 16 18 19 20 21 22 22 22 23 24 26 28 29 30 30 30 29 30 31 31 32 33 31 31 32 32 31 30 28 27 27 27 27 26 24 23 22 21 21 21 21 21 20 19 20 20 20 21 22 22 21 21
8 9 10 11 12 14 14 14 17 20 21 20 19 18 17 21 23 21 20 21 22 22 22 22 21 21 21 20 18 16 14 14 15 16 17 19 21 22 22 22 22 23 24 27 29 30 30 30 31 30 30 30 29 30 33 32 30 30 30 30 30 28 27 27 28 28 28 27 26 24 23 22 22 21 20 20 20 21 21 21 21 22 23 22 21
10 8 8 10 12 12 12 14 17 18 18 17 17 18 20 21 21 20 21 22 22 22 22 22 22 21 20 21 19 16 14 13 15 16 17 18 20 21 22 22 23 23 23 25 27 30 31 31 31 31 31 30 28 28 30 31 30 29 29 29 29 29 29 29 29 30 29 29 28 27 25 23 22 21 20 20 20 21 22 23 23 22 23 23 23
10 8 8 9 11 13 14 16 17 17 16 15 17 21 24 23 20 20 22 21 20 21 22 22 22 20 19 20 19 16 14 13 14 15 17 18 19 20 22 23 23 24 23 24 25 27 30 31 32 32 32 32 30 29 30 30 29 28 30 29 29 30 32 31 30 31 31 31 30 29 27 25 23 22 21 21 21 22 23 24 23 23 24 24 25
10 9 8 9 12 15 16 16 15 14 14 16 19 23 24 22 20 20 20 19 19 20 21 22 22 19 18 19 19 17 14 13 13 14 15 16 17 18 20 23 24 24 24 24 24 25 27 29 31 31 32 33 33 32 31 30 29 29 30 30 30 31 33 33 33 32 32 32 31 30 29 27 25 24 23 23 23 23 24 24 25 25 26 26 26
10 9 8 11 14 15 13 13 13 14 17 18 20 21 21 20 20 18 18 18 18 19 21 22 22 19 18 18 18 17 15 14 13 13 14 15 16 16 18 21 24 25 25 25 25 25 25 27 29 29 30 32 32 31 30 29 30 31 32 33 33 33 33 33 34 34 34 34 33 32 31 29 28 27 26 25 25 26 26 25 25 26 26 26 27
11 9 10 12 13 11 11 13 16 19 20 20 20 19 19 19 20 20 20 18 17 18 19 21 22 20 18 18 18 17 16 15 14 13 13 14 15 16 17 18 20 21 22 22 24 26 26 26 27 28 29 29 29 29 29 29 30 31 33 34 34 34 34 35 35 35 35 35 34 33 31 30 29 29 28 27 27 28 27 25 24 24 24 25 27
12 10 10 11 11 12 16 18 19 20 20 20 20 19 19 20 22 25 23 19 17 17 18 20 22 20 18 18 18 18 17 16 17 16 15 14 14 15 16 16 16 16 18 20 22 24 25 25 26 26 27 27 28 27 27 28 29 31 33 35 34 34 36 37 38 38 36 35 35 34 33 31 30 28 28 28 27 27 27 25 23 23 23 24 25
11 10 12 13 15 18 19 18 18 19 21 22 23 21 21 22 24 25 22 18 16 16 17 20 21 19 17 17 18 18 17 17 18 18 17 16 15 16 16 16 16 15 17 19 20 21 21 21 22 23 24 25 26 26 26 27 28 29 32 34 34 35 35 36 38 39 39 38 36 35 34 33 32 29 28 27 27 26 26 25 24 24 24 24 24
12 12 15 18 19 19 17 16 18 21 23 25 24 22 22 22 22 21 19 17 17 17 18 20 20 18 17 17 18 18 17 16 16 16 16 16 17 17 16 16 16 16 16 16 17 17 17 17 17 18 20 22 23 24 25 26 27 28 30 32 33 34 35 35 36 37 39 40 38 37 35 34 32 30 27 26 26 25 24 24 24 24 25 24 23
13 15 18 19 17 15 15 18 21 24 26 26 24 23 22 21 21 20 19 18 19 19 19 19 18 17 17 17 19 19 18 17 17 16 15 15 16 17 16 15 14 14 15 15 15 15 16 16 16 17 18 19 19 19 21 23 25 26 27 30 31 32 33 34 33 34 36 37 37 37 35 33 32 30 28 26 25 24 23 23 24 24 23 23 22
14 15 17 17 15 14 18 23 25 26 26 25 23 22 21 21 21 21 20 20 19 18 17 17 18 18 17 18 20 20 20 19 19 18 16 14 15 16 15 14 14 14 14 14 15 14 14 14 15 17 17 17 15 15 17 18 20 23 25 27 29 31 33 33 32 32 32 33 33 33 32 32 32 31 28 26 25 24 24 23 24 23 22 22 23
15 16 17 16 17 20 23 26 26 26 26 24 23 23 22 22 22 23 22 21 19 18 17 18 18 19 18 19 20 20 20 19 19 18 17 15 14 15 14 14 14 14 13 13 13 13 13 14 15 15 15 15 14 14 15 17 17 19 21 23 26 28 30 31 31 30 30 30 30 30 30 31 30 29 26 25 25 25 25 24 23 22 22 22 23
18 18 18 19 21 24 25 26 26 27 27 25 24 24 24 24 24 24 23 21 20 19 18 19 19 19 19 19 19 19 18 19 18 18 17 16 15 15 14 13 13 14 13 12 13 13 14 14 15 15 15 15 15 15 15 17 17 18 20 22 23 25 27 28 29 28 28 29 29 29 29 28 28 27 26 26 26 26 25 24 23 22 22 22 21
19 19 19 21 23 25 26 27 27 27 27 25 25 25 25 25 24 23 23 21 20 19 19 19 19 19 19 19 18 17 17 18 18 17 16 15 15 15 14 14 14 15 15 15 15 15 14 14 15 16 17 16 17 17 16 16 17 19 20 21 22 24 26 27 27 27 28 27 27 28 27 26 26 26 26 27 27 25 24 23 22 22 22 20 19
18 18 19 22 24 26 27 27 26 26 25 24 24 24 24 23 22 22 22 21 20 20 20 20 19 19 18 18 17 16 16 16 17 16 16 15 14 13 13 14 15 16 16 17 17 16 15 14 15 17 18 18 18 18 16 15 16 17 18 19 21 22 23 25 26 27 27 27 27 27 26 26 25 25 25 26 25 24 24 23 21 21 20 19 17
19 20 21 23 25 26 27 27 26 25 24 23 23 23 22 21 21 21 21 20 20 20 21 21 20 19 17 17 15 14 14 15 15 16 16 15 14 13 12 12 13 14 16 18 18 16 15 14 14 16 18 18 18 17 14 13 14 14 15 16 16 16 17 21 24 25 26 27 28 27 26 26 26 24 23 22 22 22 23 22 20 19 19 18 17
21 23 23 24 25 26 26 27 26 24 23 22 22 22 22 20 20 20 20 20 20 19 19 20 20 19 17 16 14 13 13 14 14 15 16 15 14 12 12 11 12 13 15 16 16 15 15 15 14 15 16 17 16 14 12 12 12 12 13 13 12 9 9 13 20 24 25 25 26 25 25 25 25 23 22 20 19 20 20 18 17 17 17 16 16
23 24 23 24 24 25 26 27 26 24 23 22 21 22 22 21 20 20 20 20 19 18 18 19 19 19 18 16 13 11 12 13 13 14 15 15 13 12 11 11 12 13 14 15 14 15 15 14 14 15 15 16 14 11 10 10 10 10 11 11 11 9 5 6 12 18 21 21 21 21 21 20 21 21 20 19 18 18 17 16 15 15 15 16 16
23 23 23 23 23 24 25 26 26 24 23 22 21 21 22 22 21 21 21 20 18 18 18 18 18 17 17 15 12 10 10 11 13 13 13 12 12 11 10 10 11 11 12 13 12 12 13 13 14 14 15 16 14 9 7 8 8 8 8 7 7 8 6 5 6 9 11 14 16 15 14 15 17 18 19 19 18 17 16 15 15 15 16 17 17
23 22 22 22 22 23 25 26 26 25 24 23 22 21 22 22 21 21 20 19 19 19 18 18 17 16 15 14 12 11 10 11 12 13 12 11 12 11 10 10 10 10 11 11 11 11 12 13 14 15 15 16 13 7 4 7 8 8 7 5 5 5 5 6 6 6 7 9 11 12 13 14 16 17 17 17 17 16 15 15 16 16 18 19 20
22 21 21 22 23 24 24 25 26 27 25 24 22 21 21 21 21 20 19 18 17 17 17 17 16 15 13 13 12 11 10 10 12 13 12 11 12 11 10 9 9 10 10 10 10 11 12 14 15 14 13 14 11 5 2 5 7 8 7 5 4 5 4 4 4 5 6 9 11 13 14 15 15 14 13 13 13 12 12 14 15 16 17 18 19
20 19 20 22 23 24 23 24 26 27 27 25 23 22 20 20 20 19 18 17 16 16 16 17 16 14 11 11 12 12 10 10 12 12 11 11 10 11 10 9 8 8 9 9 9 10 11 13 13 12 12 12 11 5 2 5 7 7 7 6 5 5 5 5 4 4 6 9 11 13 13 12 11 10 9 9 10 10 11 13 13 13 13 13 12
18 18 20 21 22 23 23 24 25 26 26 25 24 23 20 18 18 18 17 17 16 15 16 16 15 13 10 9 11 11 11 11 13 13 12 11 10 11 10 9 8 8 8 9 9 9 10 11 11 11 11 9 7 3 1 4 6 6 4 4 4 4 5 6 6 6 6 6 7 7 8 8 8 7 8 9 11 11 10 9 9 9 9 10 10
18 18 19 20 21 22 23 24 25 25 25 25 25 23 21 18 17 17 17 17 16 16 16 15 13 12 11 9 10 10 10 11 13 14 13 11 10 10 9 8 9 9 10 11 11 10 9 9 9 10 9 6 4 2 2 1 4 5 3 2 3 5 6 7 8 8 7 7 6 6 7 8 8 9 9 9 8 7 6 6 7 8 9 9 10
19 19 19 20 21 22 23 24 24 24 25 26 25 24 22 19 17 16 17 17 17 17 17 15 13 12 11 10 9 9 8 9 11 13 13 12 11 10 9 8 8 9 10 12 12 10 9 9 8 9 9 7 5 4 3 4 5 5 3 2 2 6 8 8 8 8 8 8 8 8 8 8 7 7 6 6 6 5 6 7 8 9 9 9 9
Wind_Direction
103 149 200 230 206 172 168 172 177 186 201 216 225 230 227 229 237 240 238 233 231 229 230 232 229 226 224 222 228 234 236 237 237 235 233 234 233 233 233 232 231 228 227 230 231 233 229 221 209 200 211 219 213 229 228 211 218 241 259 263 253 253 273 292 295 283 281 314 331 336 325 310 313 308 324 296 250 45 123 222 222 223 217 201 200
139 123 168 208 193 166 169 182 181 174 191 218 229 222 221 229 235 234 234 230 230 230 229 231 232 230 228 227 232 236 236 237 238 237 234 231 228 226 224 223 221 218 217 222 226 228 229 222 207 201 210 210 207 225 218 203 220 244 254 253 239 240 267 290 289 276 284 311 321 321 321 316 308 300 346 333 210 161 191 226 222 221 229 218 205
111 90 118 170 178 162 163 184 199 184 196 218 225 220 223 231 232 229 230 228 228 230 228 229 233 234 233 235 240 241 239 238 239 238 233 229 225 219 219 219 215 211 214 222 227 227 228 221 205 200 207 204 207 223 217 207 223 239 245 248 247 249 260 280 291 290 296 309 311 310 315 315 304 280 316 322 235 192 193 206 223 229 233 235 222
77 94 120 142 160 160 162 182 220 214 206 215 226 231 234 236 234 235 235 228 226 229 226 225 231 236 237 240 243 243 241 239 236 231 225 224 222 217 218 219 218 219 224 230 236 234 230 220 206 202 206 207 213 220 217 215 226 235 243 252 252 244 243 268 289 298 305 308 304 306 314 309 298 293 313 311 228 245 231 210 238 229 228 235 234
60 85 112 135 159 171 170 182 231 254 222 218 228 235 238 235 230 237 238 230 228 228 224 224 232 239 242 246 246 241 237 235 233 228 222 219 216 214 217 221 225 230 233 237 243 244 233 220 210 207 209 213 218 218 216 219 227 233 237 240 237 232 238 262 277 282 285 286 289 304 313 307 307 316 313 277 263 313 264 218 243 198 223 243 247
59 75 90 102 113 145 179 179 188 263 256 249 245 235 224 221 223 232 235 232 231 229 226 227 229 232 237 243 245 242 239 235 232 230 226 223 219 216 220 226 231 236 240 244 250 252 237 223 215 212 214 218 221 220 218 221 229 235 233 224 221 232 250 260 269 269 267 266 272 289 300 304 309 311 306 287 296 319 38 207 238 214 229 257 261
51 70 84 90 87 89 147 176 173 190 216 237 257 250 237 232 234 233 229 233 233 229 227 224 220 223 231 238 241 241 243 242 239 237 235 232 227 222 225 230 234 238 245 251 257 258 241 226 220 216 217 219 222 223 220 222 234 236 225 220 225 239 253 260 265 260 257 262 269 276 286 298 302 299 302 310 311 311 304 291 250 235 234 245 257
45 61 70 73 68 72 92 168 187 192 200 203 205 222 249 250 253 251 239 240 240 230 226 223 222 226 230 233 234 234 238 242 240 241 242 239 231 228 233 237 240 244 248 254 262 264 246 229 222 219 217 219 222 223 221 222 233 227 209 210 229 246 252 257 262 257 255 267 275 274 274 284 289 289 298 306 309 311 301 286 285 268 256 252 253
47 54 58 54 45 40 27 357 239 216 218 223 225 228 232 234 253 254 233 240 256 238 227 225 225 228 228 229 229 228 233 236 234 234 235 233 229 228 234 239 245 249 249 251 260 266 252 235 227 223 220 221 223 225 225 222 225 226 216 213 232 254 257 257 265 267 272 280 279 268 262 272 280 285 296 301 303 306 299 298 313 303 281 258 251
48 50 54 49 43 41 18 333 290 270 255 253 260 268 254 240 252 242 218 229 259 248 236 229 223 223 226 228 228 229 232 233 230 226 222 222 222 224 231 241 248 249 248 249 253 263 261 243 233 228 224 223 225 228 230 227 223 224 222 222 236 254 258 260 268 275 279 279 270 253 253 267 276 284 294 295 294 299 300 304 314 310 294 262 243
50 49 49 48 47 47 41 27 4 344 308 282 272 279 274 263 269 259 244 256 268 264 259 244 231 228 230 231 232 233 233 231 228 223 219 218 217 218 227 240 248 248 248 250 252 258 263 252 240 234 229 227 226 228 232 234 230 225 218 219 231 244 250 257 267 275 276 267 251 243 251 265 274 281 286 285 287 294 297 302 309 304 293 275 249
47 44 42 42 43 40 36 31 23 21 10 347 320 299 291 285 286 283 278 282 283 285 286 275 258 248 243 240 238 236 234 232 229 225 222 220 219 218 223 232 243 248 249 250 250 253 259 259 250 241 234 230 228 228 230 234 235 231 222 221 227 235 245 254 262 269 270 261 251 249 255 264 270 274 274 276 289 298 297 304 313 301 288 283 264
41 40 38 37 39 38 35 33 29 28 25 16 3 346 331 318 309 304 301 299 298 298 296 294 291 282 272 260 249 241 236 233 232 229 227 226 224 222 222 226 233 242 246 246 245 249 256 258 256 251 242 234 231 230 230 233 235 233 229 227 226 233 244 252 257 261 263 260 253 247 252 261 266 268 267 268 281 291 291 304 317 300 288 287 272
37 36 36 36 38 37 35 33 31 29 26 23 19 12 3 353 347 338 326 319 314 311 308 304 301 293 285 274 260 249 242 238 234 231 231 231 229 226 223 223 227 235 243 244 244 248 254 257 256 257 254 245 239 238 238 238 236 233 233 232 229 232 244 249 248 250 254 256 251 246 249 257 262 262 258 257 264 270 275 288 300 293 288 290 283
32 28 28 29 30 33 33 32 31 30 29 29 30 25 15 4 1 0 355 342 330 322 316 311 309 300 286 274 264 255 250 247 242 237 235 234 231 227 223 220 222 230 239 245 246 246 251 255 253 252 255 254 250 249 248 247 242 234 231 232 230 232 241 243 237 239 247 254 253 250 251 255 257 255 251 252 255 258 264 276 283 282 282 286 288
26 21 19 17 17 21 23 24 27 29 29 30 32 30 24 15 8 5 2 353 341 336 329 319 314 307 294 281 269 260 257 255 250 244 241 238 235 230 224 218 217 223 230 238 244 243 245 250 249 248 251 253 253 253 253 253 245 232 225 226 229 234 241 242 238 240 248 256 257 256 258 258 258 255 252 253 254 257 260 265 268 270 275 280 284
15 13 13 11 8 7 7 10 15 18 18 20 24 26 26 23 18 13 8 359 348 339 334 327 319 311 298 286 276 270 266 261 254 248 242 241 239 236 233 226 220 220 222 228 236 240 238 236 237 241 245 249 252 253 255 255 249 236 227 227 231 237 242 244 245 246 251 256 259 262 264 262 260 259 257 254 253 255 254 254 257 260 265 271 276
8 1 0 3 3 1 357 358 2 5 6 7 10 13 17 20 21 18 13 8 2 350 339 329 322 316 303 290 282 278 275 268 257 247 240 240 241 239 238 236 229 224 224 225 230 236 239 239 238 237 238 244 250 252 253 252 251 245 237 236 238 240 244 246 247 250 253 255 259 262 262 260 259 259 259 254 248 244 243 246 252 253 253 258 266
22 7 359 360 1 359 356 357 0 3 2 2 3 1 5 9 13 16 14 12 10 3 354 342 328 320 311 301 293 285 278 268 253 241 237 241 243 241 240 240 237 232 231 232 232 235 240 244 246 244 241 241 245 249 250 248 250 251 245 241 240 242 245 246 248 250 252 254 256 258 256 255 258 261 261 258 248 241 238 239 243 244 245 251 257
30 25 16 12 9 3 359 359 1 4 6 8 8 3 1 2 1 7 12 12 9 6 3 355 340 325 316 310 303 291 277 262 247 238 237 241 244 241 238 240 240 237 238 240 239 237 238 241 245 247 245 243 242 244 247 248 250 251 247 242 241 243 246 248 250 250 250 251 253 254 252 254 260 265 267 266 258 249 245 242 242 243 244 247 250
23 23 19 14 13 10 4 359 359 2 4 6 8 6 5 4 0 359 3 6 6 5 0 355 345 329 317 312 306 297 282 260 249 244 242 243 244 241 238 238 239 237 237 239 241 241 240 242 246 247 246 245 243 242 244 247 247 247 245 243 244 246 249 251 251 249 247 248 250 251 252 255 260 265 269 271 265 254 247 245 244 247 248 247 246
17 16 13 9 10 10 5 1 359 360 2 3 3 3 2 2 2 359 354 355 360 2 357 347 340 329 316 309 302 295 285 264 252 250 250 248 244 239 237 238 239 238 235 234 238 241 242 244 248 249 247 246 244 244 247 247 244 244 245 246 247 248 249 250 250 247 244 244 247 249 252 255 257 261 266 267 266 258 250 246 246 249 250 248 247
13 10 8 8 7 2 358 357 356 357 359 1 360 359 358 357 358 357 350 344 346 352 354 349 342 333 322 308 294 289 284 271 257 252 252 252 247 240 237 238 242 243 236 231 233 238 241 243 246 247 246 243 242 246 252 249 243 243 246 246 247 248 249 250 250 249 245 243 246 249 250 251 253 257 262 263 261 257 252 250 250 253 255 254 252
20 17 9 6 360 353 350 349 352 354 354 355 355 355 354 352 354 354 349 342 337 337 344 348 346 339 329 314 296 282 276 272 265 259 255 252 248 244 241 241 242 243 239 234 232 234 238 239 241 243 243 243 242 245 251 251 245 245 246 245 247 250 250 252 252 252 250 247 247 248 248 248 250 253 258 258 255 253 252 253 253 255 259 259 258
23 22 7 357 349 347 348 345 345 347 346 347 349 348 345 344 347 349 347 345 340 334 335 339 341 340 334 321 305 286 272 267 267 265 262 257 250 246 245 243 240 240 242 239 236 235 236 237 239 241 242 244 245 244 246 248 247 247 247 245 249 252 251 253 254 255 254 251 249 247 246 248 249 252 255 256 253 251 253 255 255 255 259 262 263
11 0 349 345 344 347 349 343 339 339 337 337 341 343 341 337 338 343 345 344 342 337 335 335 336 337 337 329 314 295 277 268 264 262 260 258 255 252 249 247 244 243 244 244 240 237 236 237 239 240 240 243 247 247 247 245 246 249 250 247 248 250 251 253 255 256 257 257 254 251 250 251 252 253 256 259 257 254 254 255 255 256 260 265 268
357 344 337 343 350 350 346 337 335 337 336 335 335 337 336 331 331 336 339 340 340 337 336 336 336 336 336 333 322 304 285 272 266 263 259 255 254 254 252 248 245 244 244 243 241 237 236 236 237 237 238 240 245 248 248 246 246 249 248 243 243 247 249 251 253 255 257 259 258 257 257 257 255 254 258 261 261 260 259 258 257 257 260 264 266
355 345 341 351 356 349 339 333 335 339 338 336 333 332 331 328 327 330 331 333 337 338 337 336 337 337 335 335 328 313 295 278 267 264 264 259 251 250 251 249 245 245 245 244 242 240 238 237 237 238 238 239 240 242 244 247 250 248 242 237 237 243 248 249 250 253 256 258 260 260 261 260 256 253 258 263 265 264 263 262 260 258 259 262 263
5 356 349 352 350 341 337 337 338 339 336 332 330 331 331 328 323 323 324 327 334 338 339 338 337 337 335 335 333 320 304 291 279 272 271 269 259 251 251 250 247 245 246 247 246 243 240 239 238 238 239 240 240 239 239 243 248 246 241 237 236 242 248 249 248 251 255 257 259 260 260 260 258 257 261 266 266 265 264 263 260 257 258 259 260
1 353 344 341 340 340 342 340 336 335 330 325 326 329 330 329 325 325 326 328 333 336 337 338 337 336 334 334 335 327 312 300 293 284 278 277 272 263 259 258 255 251 249 248 248 245 242 241 241 240 240 241 241 240 239 241 244 242 240 239 236 238 244 248 249 251 254 256 259 260 261 261 261 262 265 267 265 264 264 262 259 258 257 256 256
353 341 326 334 343 346 346 341 336 334 330 328 329 331 332 332 331 331 330 330 332 332 333 335 335 335 332 332 335 332 320 307 298 291 286 282 277 272 267 264 262 260 256 253 251 249 245 242 243 243 242 242 242 242 241 243 244 242 239 237 236 237 239 243 247 250 253 255 257 259 261 261 262 264 266 267 266 265 265 264 262 262 261 259 256
346 332 329 344 353 353 345 339 337 336 335 334 334 333 331 331 331 331 328 327 327 328 328 329 331 333 331 329 331 331 325 315 306 298 292 288 281 275 269 266 264 263 262 259 256 254 250 247 246 245 244 245 245 246 245 245 245 242 239 237 238 239 239 240 244 247 251 254 256 258 259 260 261 263 266 267 267 266 266 266 265 264 263 261 258
352 345 350 357 354 347 343 340 339 337 336 334 331 328 324 321 322 324 324 323 321 324 324 324 326 328 329 329 329 330 328 321 314 304 294 293 292 285 279 274 268 265 264 261 258 255 253 251 250 249 248 247 246 247 248 247 246 243 240 239 239 241 242 243 244 244 245 248 251 255 258 259 259 261 264 266 267 266 265 265 265 265 263 260 257
12 9 4 354 345 344 343 341 338 335 333 331 329 325 320 318 319 320 321 319 318 320 320 320 321 323 327 328 329 330 329 326 321 313 304 301 300 296 291 286 279 271 265 262 259 257 255 254 253 251 249 247 245 245 246 246 245 242 241 242 242 242 244 245 246 245 243 242 243 247 252 256 257 259 261 263 264 264 263 263 264 266 266 263 259
16 7 357 348 344 345 343 336 332 331 331 332 331 327 322 322 323 323 319 314 312 313 314 315 317 319 323 328 328 327 327 327 325 319 311 305 300 293 289 290 288 281 274 267 263 261 261 261 261 258 254 250 247 247 247 246 245 243 243 243 243 243 244 245 246 245 242 241 243 244 246 250 254 255 256 257 260 260 258 257 260 262 265 266 262
8 359 353 348 345 345 340 333 330 331 331 331 330 328 324 323 324 324 320 316 313 311 310 311 314 316 320 325 325 325 327 327 325 320 311 307 301 291 282 282 283 280 277 275 271 268 269 268 266 264 261 257 253 250 247 244 243 243 243 244 244 245 245 246 246 245 243 244 246 246 244 246 250 251 251 252 255 255 252 251 255 258 259 259 259
0 353 347 344 339 333 331 330 329 331 331 329 328 327 324 321 321 321 320 318 317 315 312 310 312 315 318 319 320 324 328 328 328 325 316 308 302 294 286 283 281 276 273 274 272 271 272 269 263 258 256 255 254 250 246 242 240 239 241 243 245 246 247 248 247 246 246 246 246 246 244 245 247 248 248 248 248 249 249 250 254 255 252 252 254
350 343 336 332 326 323 326 329 330 331 330 330 328 326 324 321 319 318 316 315 314 315 314 313 313 314 315 315 317 321 327 328 328 327 322 313 303 294 286 285 284 277 269 265 262 262 265 265 261 258 258 258 256 251 249 248 245 242 241 242 243 245 246 247 246 246 246 246 246 246 245 245 246 246 243 241 242 245 249 252 252 251 249 252 254
340 337 331 326 324 325 328 330 330 329 329 328 325 322 320 319 317 316 315 313 312 312 312 312 312 312 312 312 314 319 324 326 325 325 324 318 308 295 284 280 280 276 270 266 264 262 262 263 263 263 263 261 258 254 254 256 255 253 249 247 245 245 246 245 244 244 244 244 244 245 244 243 243 242 238 236 239 243 247 249 249 249 250 250 248
338 338 333 329 328 330 331 331 331 329 328 327 323 318 316 315 314 312 312 313 313 311 311 312 311 311 309 309 312 316 322 324 322 321 321 317 309 297 285 277 274 273 270 269 268 267 266 266 266 266 263 261 261 261 260 260 260 258 253 248 246 246 247 246 245 243 242 241 240 241 241 242 242 239 236 236 238 241 243 244 244 247 248 245 241
339 337 333 330 330 332 332 332 332 331 329 328 324 318 315 313 311 310 311 314 314 311 312 312 311 311 310 309 309 313 318 323 322 320 319 317 309 297 284 275 271 271 269 266 266 267 268 267 266 265 261 260 262 261 259 258 260 257 250 244 244 246 247 247 245 243 241 239 237 237 237 238 239 237 235 235 236 237 238 238 240 245 245 240 237
337 336 334 332 333 334 334 334 336 335 333 332 327 321 318 314 312 312 314 315 314 312 311 311 311 313 315 313 311 309 313 320 322 320 319 318 311 296 282 276 275 273 268 264 266 268 266 263 263 263 262 260 259 257 257 258 258 253 244 239 242 249 253 250 246 242 238 236 235 235 234 234 235 233 230 230 232 232 232 232 235 239 238 235 232
337 337 336 336 336 336 337 339 340 339 337 336 331 325 321 317 317 320 320 316 314 314 313 312 313 315 318 317 313 307 308 314 320 323 320 315 308 296 284 279 278 274 265 260 263 268 266 262 260 260 261 259 255 255 259 260 257 252 242 233 235 248 259 252 244 239 236 234 233 233 233 230 227 224 222 223 225 226 226 227 229 230 229 230 231
339 338 338 339 338 338 340 343 344 343 340 338 334 328 324 321 322 326 324 319 315 314 314 315 317 318 318 317 313 308 307 312 321 327 323 316 307 296 284 276 275 275 270 264 263 266 266 263 260 259 259 258 254 254 258 259 258 254 241 228 229 239 251 250 241 236 231 225 224 227 226 219 215 215 217 217 217 219 220 221 222 222 224 228 233
339 340 339 340 341 342 343 344 346 345 341 338 337 333 327 326 328 328 326 321 316 313 314 317 320 320 317 314 310 308 310 318 326 329 327 323 316 302 285 273 270 273 277 275 270 267 266 264 261 260 260 257 253 249 252 256 260 259 246 230 230 237 239 237 232 226 216 209 210 217 214 206 209 213 211 211 213 214 218 220 222 226 231 235 238
339 340 341 342 344 345 344 343 345 345 341 337 338 336 332 331 330 328 324 320 316 314 315 318 320 320 316 311 304 302 308 322 329 328 325 326 322 311 292 275 266 264 272 278 276 269 265 264 265 264 261 257 254 253 263 265 264 263 257 242 231 230 231 229 220 214 213 209 210 215 210 203 205 204 200 205 211 211 214 222 229 236 241 244 244
338 341 344 346 346 346 344 343 345 346 344 341 339 338 335 333 331 328 323 320 318 317 316 318 319 320 318 310 299 295 303 317 324 325 323 322 319 315 305 287 270 262 266 275 279 270 261 262 266 264 256 253 252 253 317 310 289 276 267 257 239 224 218 223 222 218 216 205 195 191 186 184 188 191 193 206 216 218 226 238 245 249 249 248 244
338 343 346 346 346 346 345 343 344 346 347 345 342 339 335 333 331 328 324 320 320 319 319 319 319 318 317 308 296 294 300 308 314 318 319 317 314 313 311 301 281 266 262 266 272 270 262 262 265 258 250 254 261 268 355 5 339 303 277 268 258 237 225 226 224 204 188 179 172 168 165 170 183 193 203 224 244 253 255 255 254 249 242 235 228
341 344 345 345 345 346 345 342 341 344 346 347 344 340 336 332 330 327 324 320 318 317 320 322 322 318 312 302 296 297 299 301 306 310 313 314 313 313 316 310 288 270 262 260 262 262 260 259 255 247 243 251 267 280 25 22 359 340 305 275 262 247 236 231 225 212 198 190 184 179 181 193 208 223 239 252 259 260 254 247 238 226 218 213 206
343 344 344 346 347 347 343 340 340 343 346 346 344 341 336 330 328 327 325 320 316 316 319 322 323 318 310 300 296 297 298 298 301 306 310 311 309 309 315 311 290 272 264 261 258 252 251 250 245 244 241 229 212 184 154 220 317 334 337 294 233 224 231 233 230 228 226 225 226 227 226 230 235 241 246 245 239 228 214 204 199 197 195 191 185
341 343 345 346 347 345 343 341 341 343 344 343 343 342 337 332 329 329 325 320 317 317 317 319 320 316 307 297 291 292 295 297 301 306 309 308 305 304 304 299 284 267 256 253 249 241 240 237 232 240 241 217 190 176 174 215 260 286 312 313 236 221 227 233 234 233 233 236 242 246 241 233 228 221 209 192 175 166 167 175 180 185 185 177 167
Height
1530 1530 1528 1526 1525 1526 1527 1527 1526 1529 1531 1534 1536 1537 1538 1539 1540 1541 1542 1543 1544 1546 1547 1547 1548 1548 1548 1548 1548 1549 1550 1551 1551 1552 1552 1552 1553 1554 1554 1554 1555 1556 1557 1558 1558 1559 1560 1560 1561 1563 1564 1564 1564 1565 1566 1566 1566 1567 1568 1568 1568 1568 1568 1568 1568 1568 1567 1567 1566 1566 1565 1564 1563 1563 1563 1562 1562 1562 1561 1561 1561 1561 1561 1561 1561
1531 1531 1529 1527 1528 1528 1528 1529 1528 1530 1531 1534 1535 1536 1538 1538 1538 1539 1540 1541 1542 1544 1545 1546 1546 1547 1547 1547 1547 1548 1549 1550 1550 1550 1551 1551 1552 1552 1553 1553 1554 1554 1555 1556 1557 1557 1558 1559 1560 1561 1562 1563 1563 1564 1565 1564 1565 1566 1566 1567 1567 1567 1567 1567 1567 1567 1567 1566 1566 1565 1565 1564 1563 1563 1562 1562 1561 1561 1561 1561 1561 1561 1561 1561 1561
1532 1532 1531 1529 1530 1531 1530 1530 1530 1531 1532 1534 1535 1535 1536 1536 1536 1537 1537 1538 1540 1542 1543 1543 1544 1545 1545 1546 1547 1547 1547 1548 1549 1550 1550 1551 1551 1552 1552 1552 1553 1553 1554 1555 1555 1556 1557 1558 1559 1560 1561 1561 1562 1563 1563 1563 1563 1564 1565 1566 1566 1567 1567 1566 1566 1567 1566 1566 1565 1565 1564 1564 1563 1563 1562 1562 1561 1561 1561 1561 1561 1561 1560 1561 1560
1534 1533 1532 1531 1532 1533 1532 1531 1531 1531 1532 1534 1535 1535 1535 1535 1535 1535 1535 1536 1538 1539 1540 1541 1543 1543 1544 1545 1546 1546 1547 1547 1548 1548 1549 1549 1550 1550 1551 1551 1552 1552 1552 1553 1554 1554 1555 1556 1558 1558 1559 1560 1561 1562 1562 1562 1562 1562 1563 1564 1565 1565 1566 1566 1566 1566 1566 1565 1565 1564 1564 1563 1563 1562 1562 1561 1561 1561 1561 1561 1561 1561 1560 1560 1560
1534 1534 1533 1533 1532 1533 1533 1532 1531 1531 1533 1534 1535 1535 1534 1533 1533 1534 1534 1534 1535 1536 1537 1538 1540 1541 1543 1545 1545 1545 1545 1545 1546 1546 1547 1547 1548 1549 1549 1550 1550 1551 1551 1552 1552 1553 1554 1554 1556 1557 1558 1559 1559 1560 1561 1561 1561 1561 1562 1563 1564 1564 1565 1565 1565 1565 1565 1565 1565 1564 1564 1563 1562 1562 1562 1561 1561 1561 1560 1560 1560 1560 1560 1560 1559
1533 1533 1534 1534 1534 1534 1534 1533 1533 1533 1533 1534 1535 1535 1535 1534 1533 1533 1532 1532 1532 1533 1533 1534 1534 1536 1539 1541 1543 1543 1543 1543 1543 1544 1545 1546 1546 1547 1548 1548 1549 1549 1550 1550 1551 1551 1552 1553 1554 1555 1556 1557 1558 1559 1559 1560 1560 1560 1561 1562 1562 1563 1563 1564 1564 1565 1565 1565 1564 1564 1563 1563 1562 1562 1562 1561 1561 1560 1560 1560 1560 1559 1559 1559 1558
1532 1533 1533 1533 1534 1534 1533 1533 1534 1536 1536 1536 1536 1536 1536 1536 1535 1534 1533 1533 1532 1532 1532 1531 1529 1529 1531 1533 1537 1540 1540 1540 1541 1542 1543 1544 1545 1545 1546 1547 1547 1548 1548 1548 1549 1550 1550 1551 1552 1553 1554 1555 1556 1557 1558 1559 1559 1560 1560 1561 1561 1562 1562 1562 1563 1563 1564 1564 1563 1563 1563 1562 1562 1562 1561 1561 1560 1560 1559 1559 1559 1559 1558 1558 1558
1532 1532 1532 1532 1533 1533 1533 1533 1533 1533 1534 1536 1537 1537 1537 1537 1535 1535 1535 1535 1534 1534 1532 1530 1528 1527 1527 1528 1531 1534 1536 1537 1539 1540 1541 1542 1543 1543 1544 1545 1545 1546 1546 1547 1548 1548 1549 1549 1550 1551 1552 1553 1554 1555 1556 1557 1558 1559 1559 1560 1560 1560 1560 1561 1561 1562 1562 1562 1562 1562 1562 1562 1561 1561 1561 1560 1560 1559 1559 1559 1558 1558 1558 1557 1556
1532 1531 1531 1531 1531 1531 1532 1532 1533 1532 1531 1531 1532 1534 1535 1535 1535 1535 1536 1535 1535 1534 1533 1530 1527 1526 1526 1527 1528 1530 1532 1534 1536 1537 1538 1540 1541 1542 1542 1543 1543 1544 1545 1545 1546 1547 1547 1548 1549 1549 1550 1551 1552 1553 1555 1556 1557 1557 1558 1558 1559 1559 1559 1559 1560 1560 1560 1561 1561 1560 1561 1560 1560 1560 1559 1559 1559 1558 1558 1558 1557 1557 1557 1556 1556
1532 1531 1531 1531 1530 1530 1530 1530 1531 1532 1531 1530 1530 1529 1530 1529 1529 1530 1531 1533 1533 1533 1531 1529 1527 1524 1523 1525 1527 1529 1530 1531 1533 1534 1535 1537 1538 1539 1540 1540 1541 1542 1543 1544 1545 1546 1546 1547 1547 1548 1548 1549 1550 1551 1553 1554 1555 1556 1556 1557 1557 1558 1558 1558 1558 1559 1559 1559 1559 1559 1559 1559 1559 1558 1558 1558 1557 1557 1557 1556 1556 1556 1555 1555 1555
1533 1532 1531 1531 1531 1530 1530 1530 1530 1530 1529 1529 1529 1529 1529 1528 1526 1526 1527 1527 1528 1528 1528 1527 1525 1523 1521 1522 1524 1526 1528 1529 1529 1530 1531 1533 1534 1536 1537 1538 1539 1540 1541 1542 1543 1544 1545 1546 1546 1547 1547 1548 1549 1550 1551 1552 1553 1554 1555 1555 1556 1556 1557 1557 1557 1557 1557 1557 1557 1557 1557 1557 1557 1557 1556 1556 1556 1555 1555 1555 1555 1554 1554 1554 1554
1534 1533 1531 1530 1530 1530 1529 1529 1529 1528 1528 1527 1527 1527 1527 1526 1525 1525 1525 1524 1524 1523 1523 1523 1522 1521 1521 1521 1522 1523 1525 1525 1526 1527 1528 1529 1531 1533 1534 1536 1536 1538 1539 1540 1541 1543 1544 1545 1545 1545 1546 1546 1547 1548 1549 1550 1551 1552 1552 1553 1554 1554 1555 1555 1555 1556 1555 1555 1555 1555 1556 1555 1555 1555 1555 1554 1554 1554 1554 1553 1553 1553 1553 1553 1553
1534 1533 1532 1530 1529 1529 1528 1527 1527 1526 1525 1525 1525 1525 1525 1524 1523 1523 1522 1522 1521 1520 1519 1519 1518 1519 1519 1519 1520 1521 1522 1522 1523 1524 1525 1526 1527 1529 1531 1532 1534 1535 1537 1538 1540 1541 1542 1543 1544 1544 1544 1545 1546 1547 1547 1548 1549 1549 1550 1551 1551 1552 1553 1553 1553 1554 1554 1554 1554 1554 1554 1554 1554 1553 1553 1553 1553 1553 1552 1552 1552 1552 1551 1551 1551
1535 1534 1533 1531 1530 1529 1528 1527 1526 1525 1524 1524 1524 1524 1523 1522 1521 1520 1520 1519 1519 1518 1517 1517 1517 1517 1517 1516 1517 1518 1519 1520 1520 1521 1522 1523 1524 1526 1527 1529 1531 1533 1534 1536 1538 1539 1540 1541 1542 1542 1543 1543 1544 1545 1546 1546 1547 1547 1548 1549 1549 1550 1550 1550 1551 1552 1552 1552 1552 1552 1552 1552 1552 1552 1552 1552 1552 1552 1551 1551 1551 1551 1550 1550 1550
1536 1535 1533 1532 1531 1530 1529 1527 1526 1526 1525 1524 1523 1523 1521 1520 1519 1518 1518 1518 1517 1516 1516 1515 1515 1515 1514 1514 1514 1515 1517 1519 1519 1519 1520 1521 1522 1522 1523 1525 1527 1530 1532 1534 1535 1537 1538 1539 1539 1540 1541 1542 1542 1543 1544 1545 1545 1545 1546 1546 1547 1547 1548 1548 1549 1549 1550 1550 1550 1550 1551 1550 1550 1550 1550 1550 1550 1550 1550 1550 1550 1549 1549 1548 1548
1536 1535 1534 1533 1532 1530 1529 1528 1527 1526 1525 1523 1522 1521 1520 1519 1518 1517 1517 1516 1516 1515 1514 1514 1513 1513 1512 1512 1512 1512 1514 1516 1517 1518 1519 1519 1520 1520 1521 1522 1524 1526 1528 1531 1532 1534 1535 1536 1537 1538 1539 1540 1540 1541 1542 1543 1544 1544 1544 1545 1545 1545 1546 1546 1546 1547 1547 1548 1548 1548 1549 1549 1549 1549 1549 1549 1549 1549 1549 1548 1548 1548 1547 1547 1546
1537 1536 1534 1534 1532 1531 1529 1528 1527 1526 1524 1523 1521 1520 1519 1518 1517 1516 1515 1515 1515 1514 1513 1512 1511 1511 1511 1510 1509 1509 1510 1511 1513 1515 1517 1518 1519 1520 1522 1522 1522 1523 1525 1527 1530 1531 1531 1532 1533 1535 1536 1538 1539 1539 1540 1541 1542 1542 1543 1543 1543 1543 1544 1544 1544 1545 1545 1546 1546 1546 1547 1547 1547 1547 1547 1547 1547 1547 1547 1547 1546 1546 1546 1545 1545
1537 1535 1534 1534 1532 1531 1529 1527 1527 1525 1524 1523 1521 1520 1519 1518 1517 1515 1515 1514 1514 1513 1512 1511 1510 1509 1509 1508 1507 1507 1507 1508 1509 1511 1513 1515 1517 1519 1520 1521 1522 1522 1523 1525 1526 1527 1528 1529 1531 1532 1533 1535 1536 1538 1538 1539 1540 1541 1541 1541 1542 1542 1542 1542 1542 1542 1543 1543 1544 1544 1544 1545 1545 1545 1545 1546 1546 1546 1545 1545 1545 1544 1544 1544 1544
1538 1535 1534 1533 1531 1531 1529 1527 1526 1525 1524 1523 1521 1520 1519 1518 1516 1515 1514 1513 1512 1512 1511 1510 1509 1508 1508 1507 1505 1504 1504 1505 1505 1507 1510 1512 1514 1516 1517 1519 1520 1521 1522 1522 1523 1524 1525 1528 1529 1530 1531 1532 1534 1536 1537 1537 1538 1538 1539 1539 1540 1540 1540 1540 1540 1540 1541 1541 1541 1542 1542 1542 1543 1543 1544 1544 1544 1544 1544 1543 1543 1542 1542 1542 1543
1538 1537 1536 1535 1533 1531 1529 1527 1526 1524 1524 1523 1521 1520 1518 1517 1516 1515 1514 1513 1512 1511 1510 1509 1508 1507 1506 1505 1504 1503 1502 1503 1504 1505 1507 1509 1511 1512 1513 1514 1516 1517 1519 1520 1520 1521 1523 1525 1526 1528 1530 1531 1532 1533 1534 1535 1536 1536 1536 1537 1537 1538 1538 1538 1538 1538 1538 1539 1539 1539 1540 1540 1541 1541 1542 1542 1542 1542 1542 1542 1541 1540 1540 1540 1540
1538 1537 1537 1536 1535 1533 1531 1529 1527 1525 1524 1522 1520 1520 1518 1517 1516 1514 1513 1512 1511 1510 1509 1508 1507 1506 1505 1504 1503 1501 1501 1502 1503 1503 1504 1505 1507 1508 1508 1510 1511 1512 1514 1516 1517 1519 1521 1522 1523 1525 1527 1529 1529 1530 1531 1533 1534 1534 1534 1534 1535 1535 1536 1536 1536 1536 1536 1536 1536 1536 1537 1538 1538 1539 1539 1540 1540 1540 1540 1540 1539 1539 1538 1538 1538
1538 1537 1537 1536 1535 1534 1533 1531 1528 1526 1524 1522 1520 1518 1517 1516 1515 1514 1513 1512 1511 1509 1508 1506 1505 1504 1503 1502 1501 1500 1500 1500 1501 1502 1502 1503 1504 1504 1505 1506 1506 1507 1509 1511 1514 1516 1517 1519 1520 1522 1524 1526 1527 1527 1529 1530 1531 1532 1532 1532 1533 1533 1533 1533 1533 1533 1533 1533 1533 1533 1534 1535 1536 1536 1537 1538 1538 1538 1538 1538 1538 1538 1537 1537 1537
1539 1538 1537 1536 1535 1534 1533 1531 1529 1527 1525 1523 1521 1519 1517 1516 1515 1514 1512 1511 1510 1509 1507 1506 1504 1503 1501 1500 1499 1498 1498 1498 1499 1500 1500 1501 1501 1501 1502 1502 1503 1505 1506 1508 1510 1512 1514 1515 1516 1518 1520 1523 1524 1525 1526 1528 1528 1528 1530 1530 1530 1531 1531 1531 1531 1530 1531 1531 1531 1531 1531 1532 1533 1534 1535 1535 1536 1536 1536 1536 1537 1536 1536 1536 1536
1540 1539 1538 1537 1535 1534 1532 1530 1529 1527 1526 1525 1523 1521 1519 1517 1515 1514 1512 1511 1509 1508 1507 1505 1503 1502 1500 1498 1497 1496 1496 1496 1497 1497 1498 1499 1499 1499 1499 1500 1501 1502 1503 1505 1506 1508 1510 1511 1512 1514 1516 1518 1520 1521 1523 1524 1525 1525 1527 1528 1528 1528 1528 1528 1528 1528 1529 1529 1529 1528 1529 1530 1531 1531 1532 1532 1533 1533 1534 1534 1535 1535 1535 1535 1535
1541 1540 1539 1538 1537 1535 1533 1530 1529 1527 1526 1525 1523 1521 1519 1517 1515 1514 1512 1510 1509 1507 1506 1504 1503 1501 1499 1497 1496 1495 1495 1494 1494 1495 1495 1496 1497 1497 1497 1498 1498 1499 1501 1502 1503 1504 1505 1507 1508 1509 1511 1513 1516 1518 1518 1520 1522 1524 1524 1526 1526 1526 1526 1526 1526 1526 1526 1527 1527 1527 1527 1528 1528 1529 1529 1530 1530 1531 1531 1532 1532 1533 1533 1533 1533
1542 1540 1540 1539 1538 1536 1534 1531 1529 1527 1526 1524 1523 1521 1519 1517 1515 1513 1512 1510 1508 1506 1505 1503 1502 1500 1498 1496 1494 1493 1493 1492 1492 1492 1492 1493 1494 1494 1495 1495 1496 1497 1498 1499 1500 1500 1502 1503 1504 1506 1508 1509 1511 1513 1513 1514 1517 1520 1521 1522 1523 1523 1523 1523 1523 1523 1524 1524 1524 1525 1525 1526 1526 1526 1527 1527 1528 1528 1529 1529 1530 1530 1531 1531 1531
1541 1540 1540 1539 1537 1536 1534 1532 1530 1528 1526 1524 1522 1520 1518 1516 1514 1513 1512 1510 1508 1506 1504 1503 1501 1499 1497 1495 1493 1492 1491 1490 1490 1490 1490 1490 1490 1491 1492 1493 1494 1494 1494 1496 1497 1498 1499 1500 1501 1502 1503 1505 1506 1508 1510 1510 1512 1514 1516 1518 1520 1521 1520 1520 1520 1520 1521 1521 1522 1522 1523 1524 1524 1524 1525 1525 1526 1526 1526 1527 1527 1528 1528 1529 1529
1540 1540 1539 1538 1537 1535 1533 1532 1530 1527 1526 1524 1522 1520 1518 1516 1514 1512 1511 1509 1507 1506 1503 1502 1500 1498 1497 1494 1492 1491 1489 1488 1488 1487 1488 1487 1488 1489 1489 1490 1491 1491 1492 1493 1494 1495 1496 1496 1498 1498 1499 1500 1501 1504 1506 1508 1509 1509 1511 1513 1515 1516 1517 1516 1517 1517 1518 1518 1519 1520 1520 1521 1522 1522 1523 1523 1523 1523 1523 1524 1524 1525 1526 1526 1527
1540 1539 1538 1536 1536 1534 1532 1531 1529 1527 1525 1523 1521 1519 1516 1515 1513 1511 1509 1508 1506 1505 1503 1501 1499 1497 1496 1493 1491 1490 1488 1487 1486 1486 1485 1485 1485 1486 1487 1488 1488 1489 1490 1491 1491 1492 1492 1493 1494 1495 1496 1497 1498 1499 1501 1504 1505 1505 1507 1509 1510 1512 1513 1513 1513 1513 1514 1515 1516 1517 1517 1518 1520 1520 1521 1521 1521 1520 1520 1520 1521 1522 1523 1523 1524
1539 1538 1537 1535 1534 1532 1530 1529 1527 1526 1524 1522 1520 1518 1515 1513 1511 1509 1508 1506 1505 1503 1501 1500 1498 1496 1495 1493 1491 1489 1487 1486 1485 1484 1484 1483 1483 1484 1484 1485 1486 1486 1487 1487 1488 1489 1489 1490 1490 1491 1493 1494 1494 1496 1497 1499 1501 1502 1503 1505 1505 1506 1507 1508 1509 1509 1510 1511 1512 1513 1514 1516 1517 1518 1519 1518 1518 1517 1517 1518 1519 1519 1520 1521 1521
1538 1537 1535 1534 1532 1531 1529 1528 1526 1524 1522 1520 1518 1516 1514 1512 1510 1508 1506 1504 1503 1501 1499 1498 1497 1495 1494 1492 1490 1488 1487 1485 1484 1483 1482 1482 1481 1481 1481 1482 1483 1483 1484 1484 1485 1485 1485 1486 1487 1488 1489 1490 1491 1492 1494 1496 1497 1498 1500 1500 1501 1502 1503 1504 1505 1505 1506 1507 1508 1510 1512 1513 1515 1515 1516 1516 1515 1514 1515 1516 1516 1516 1517 1518 1518
1537 1536 1534 1533 1531 1530 1528 1526 1524 1523 1520 1518 1516 1514 1513 1511 1508 1507 1505 1503 1501 1499 1498 1496 1495 1493 1492 1490 1489 1487 1485 1484 1483 1482 1481 1480 1480 1480 1479 1480 1480 1481 1481 1481 1481 1481 1482 1483 1484 1485 1486 1486 1487 1489 1490 1492 1493 1494 1495 1496 1497 1498 1499 1500 1501 1501 1503 1504 1505 1507 1509 1510 1512 1513 1514 1514 1512 1512 1512 1514 1514 1514 1514 1514 1515
1536 1535 1533 1532 1530 1528 1527 1525 1522 1521 1518 1517 1515 1512 1511 1509 1507 1505 1503 1501 1500 1498 1496 1494 1492 1492 1490 1488 1487 1485 1484 1483 1482 1480 1480 1479 1479 1478 1478 1478 1478 1478 1478 1478 1478 1478 1479 1480 1481 1482 1483 1483 1484 1485 1486 1487 1488 1489 1490 1491 1492 1494 1495 1496 1497 1498 1499 1500 1502 1504 1506 1507 1509 1510 1511 1511 1510 1510 1510 1510 1510 1510 1511 1511 1512
1535 1534 1533 1531 1529 1527 1525 1523 1521 1519 1517 1515 1513 1511 1509 1507 1505 1503 1501 1500 1498 1496 1494 1492 1491 1489 1488 1487 1485 1484 1482 1482 1480 1479 1478 1478 1477 1477 1476 1476 1475 1475 1475 1475 1475 1476 1476 1477 1478 1479 1480 1480 1481 1482 1483 1484 1485 1485 1486 1487 1488 1490 1491 1491 1492 1493 1494 1495 1496 1499 1501 1503 1505 1506 1507 1508 1508 1507 1507 1507 1507 1507 1507 1508 1508
1535 1533 1532 1530 1528 1525 1523 1521 1520 1518 1515 1513 1511 1508 1506 1504 1502 1501 1499 1498 1496 1494 1493 1491 1489 1488 1486 1485 1483 1482 1481 1480 1478 1477 1476 1476 1476 1475 1474 1473 1473 1473 1473 1473 1473 1473 1473 1474 1475 1476 1477 1477 1478 1479 1480 1480 1481 1482 1483 1484 1485 1486 1486 1486 1487 1488 1490 1491 1492 1494 1496 1498 1500 1502 1504 1505 1505 1505 1505 1505 1504 1504 1504 1504 1505
1533 1532 1531 1528 1526 1524 1522 1520 1518 1516 1513 1511 1508 1506 1504 1502 1500 1498 1497 1496 1494 1493 1491 1489 1488 1486 1485 1483 1482 1480 1479 1477 1476 1475 1474 1474 1473 1472 1471 1471 1470 1470 1471 1471 1471 1471 1471 1472 1473 1473 1474 1474 1475 1476 1476 1477 1478 1479 1479 1480 1481 1481 1481 1482 1483 1484 1486 1487 1489 1490 1492 1493 1495 1497 1499 1501 1502 1503 1503 1503 1502 1502 1502 1502 1503
1532 1531 1529 1527 1525 1523 1521 1519 1516 1514 1511 1509 1506 1504 1502 1500 1498 1496 1494 1493 1492 1490 1489 1488 1486 1484 1483 1482 1480 1478 1477 1475 1474 1473 1472 1471 1471 1470 1469 1469 1468 1468 1468 1468 1468 1468 1469 1469 1470 1471 1471 1471 1472 1472 1473 1474 1474 1475 1475 1476 1476 1477 1477 1477 1478 1480 1481 1483 1485 1487 1488 1489 1490 1492 1494 1496 1498 1499 1499 1500 1500 1500 1500 1500 1501
1531 1530 1527 1526 1524 1522 1519 1517 1514 1512 1510 1507 1505 1502 1500 1498 1496 1494 1492 1491 1489 1488 1487 1486 1484 1483 1482 1480 1479 1477 1475 1474 1473 1472 1470 1470 1469 1468 1467 1467 1467 1466 1465 1465 1465 1465 1466 1467 1467 1468 1468 1468 1469 1469 1470 1470 1471 1472 1472 1472 1473 1473 1473 1474 1475 1476 1477 1479 1480 1482 1484 1484 1486 1488 1490 1492 1494 1495 1496 1497 1498 1498 1498 1498 1498
1530 1528 1526 1524 1522 1520 1518 1515 1512 1510 1508 1505 1503 1500 1498 1496 1494 1492 1490 1488 1487 1486 1485 1483 1482 1481 1480 1478 1477 1476 1474 1473 1471 1470 1469 1468 1467 1466 1466 1465 1465 1464 1464 1463 1463 1462 1463 1464 1465 1466 1466 1466 1466 1466 1467 1468 1468 1468 1469 1469 1469 1469 1469 1470 1472 1473 1474 1475 1476 1478 1479 1481 1483 1485 1486 1488 1490 1491 1492 1494 1495 1495 1494 1495 1496
1528 1526 1524 1522 1520 1518 1515 1513 1510 1508 1505 1503 1501 1498 1495 1494 1491 1490 1488 1486 1485 1484 1482 1481 1480 1479 1478 1477 1475 1474 1473 1471 1470 1468 1467 1466 1465 1464 1464 1463 1463 1462 1461 1461 1461 1460 1460 1461 1462 1463 1464 1464 1464 1464 1465 1465 1465 1465 1465 1465 1465 1465 1465 1466 1467 1469 1470 1471 1472 1474 1475 1477 1479 1481 1482 1483 1485 1487 1489 1491 1492 1491 1491 1492 1494
1526 1524 1522 1520 1518 1516 1513 1511 1509 1506 1503 1501 1498 1495 1493 1491 1489 1487 1486 1485 1483 1482 1480 1479 1478 1476 1475 1474 1473 1472 1471 1469 1468 1466 1465 1464 1463 1462 1462 1462 1461 1461 1460 1459 1459 1459 1459 1459 1460 1461 1462 1462 1462 1463 1463 1463 1463 1462 1462 1462 1462 1462 1462 1462 1463 1464 1466 1467 1468 1470 1471 1473 1475 1476 1478 1480 1482 1484 1485 1487 1488 1489 1489 1491 1492
1524 1522 1520 1518 1516 1514 1511 1509 1506 1503 1501 1498 1496 1493 1490 1488 1487 1485 1484 1483 1481 1480 1478 1477 1475 1474 1473 1472 1471 1470 1469 1467 1466 1464 1463 1461 1461 1460 1459 1459 1459 1459 1458 1458 1458 1457 1457 1457 1458 1459 1460 1460 1461 1461 1461 1461 1461 1460 1459 1459 1459 1459 1459 1459 1459 1460 1461 1463 1465 1466 1468 1470 1471 1473 1475 1477 1479 1480 1482 1484 1486 1487 1488 1489 1490
1522 1520 1518 1516 1514 1511 1509 1506 1504 1501 1499 1496 1493 1491 1488 1486 1485 1483 1482 1481 1479 1478 1476 1475 1473 1472 1471 1470 1469 1468 1467 1465 1464 1462 1460 1459 1458 1458 1457 1457 1456 1456 1456 1456 1456 1456 1456 1456 1457 1457 1458 1458 1459 1459 1459 1459 1459 1458 1458 1457 1457 1457 1456 1456 1456 1456 1457 1460 1462 1464 1465 1467 1468 1470 1473 1475 1476 1478 1479 1482 1484 1485 1486 1487 1488
1520 1519 1516 1514 1512 1509 1507 1504 1502 1499 1496 1494 1491 1489 1486 1485 1483 1481 1480 1478 1477 1475 1474 1472 1471 1470 1469 1468 1467 1465 1464 1463 1461 1460 1458 1457 1456 1455 1454 1454 1454 1454 1454 1454 1454 1454 1454 1454 1455 1455 1456 1456 1457 1457 1457 1457 1457 1457 1456 1455 1455 1454 1454 1454 1453 1454 1455 1457 1460 1461 1463 1465 1466 1468 1470 1472 1474 1476 1477 1480 1481 1483 1484 1485 1486
1519 1517 1515 1512 1510 1508 1505 1502 1500 1497 1495 1492 1490 1487 1485 1483 1481 1479 1478 1476 1474 1473 1472 1470 1469 1468 1467 1466 1464 1463 1462 1461 1459 1458 1456 1454 1454 1453 1452 1452 1451 1451 1451 1452 1452 1452 1453 1453 1453 1453 1454 1454 1454 1455 1455 1455 1455 1455 1454 1453 1453 1453 1452 1453 1453 1453 1454 1456 1458 1460 1461 1463 1465 1467 1468 1470 1472 1474 1476 1477 1479 1480 1481 1483 1484
1517 1515 1513 1511 1508 1506 1503 1500 1498 1496 1493 1490 1488 1485 1483 1481 1479 1478 1476 1474 1472 1471 1469 1468 1467 1465 1465 1464 1462 1461 1460 1459 1457 1456 1454 1453 1452 1451 1450 1449 1449 1448 1448 1449 1450 1451 1451 1451 1452 1452 1452 1452 1453 1454 1454 1454 1454 1454 1453 1452 1452 1452 1452 1452 1452 1452 1453 1455 1457 1458 1459 1461 1462 1464 1466 1468 1470 1471 1473 1475 1477 1478 1479 1480 1481
1515 1513 1511 1509 1507 1504 1502 1499 1496 1493 1490 1488 1486 1484 1481 1480 1477 1475 1474 1472 1471 1469 1467 1466 1464 1463 1462 1461 1460 1459 1458 1457 1456 1454 1452 1451 1450 1448 1448 1447 1446 1446 1446 1447 1448 1449 1450 1450 1451 1451 1451 1452 1452 1453 1453 1453 1453 1453 1452 1451 1451 1452 1452 1452 1452 1452 1453 1454 1456 1457 1458 1459 1461 1462 1464 1466 1468 1469 1471 1473 1474 1475 1476 1476 1477
1514 1512 1510 1508 1505 1503 1500 1497 1494 1492 1489 1486 1484 1482 1480 1478 1475 1473 1472 1470 1468 1467 1465 1464 1462 1461 1460 1459 1458 1457 1456 1455 1454 1452 1451 1449 1448 1447 1446 1445 1444 1444 1444 1445 1446 1448 1449 1450 1450 1450 1450 1451 1452 1452 1452 1452 1452 1452 1451 1451 1450 1451 1452 1452 1451 1452 1453 1454 1456 1456 1457 1459 1460 1461 1463 1465 1467 1468 1470 1471 1472 1472 1473 1474 1475
1512 1510 1509 1506 1504 1502 1499 1496 1493 1490 1487 1485 1482 1480 1478 1476 1473 1472 1470 1468 1466 1465 1463 1462 1461 1459 1458 1457 1456 1455 1454 1453 1452 1450 1449 1448 1446 1445 1444 1443 1442 1442 1442 1444 1445 1446 1448 1449 1449 1449 1449 1450 1451 1451 1451 1452 1452 1451 1451 1450 1450 1450 1451 1451 1451 1451 1452 1454 1456 1456 1457 1458 1460 1461 1462 1464 1466 1467 1468 1469 1470 1470 1471 1472 1474
1510 1509 1507 1505 1503 1500 1497 1495 1492 1489 1486 1484 1481 1479 1476 1474 1472 1470 1468 1466 1464 1463 1461 1460 1459 1458 1456 1455 1454 1453 1452 1451 1450 1448 1447 1446 1444 1443 1442 1441 1440 1441 1442 1443 1444 1445 1446 1447 1447 1447 1447 1448 1449 1449 1450 1451 1452 1452 1451 1451 1450 1450 1450 1451 1451 1451 1452 1453 1455 1456 1457 1458 1459 1461 1462 1463 1465 1465 1466 1467 1469 1470 1471 1472 1473
1509 1507 1505 1503 1502 1499 1496 1493 1490 1488 1485 1482 1479 1477 1474 1472 1470 1468 1466 1464 1463 1461 1459 1458 1457 1456 1454 1453 1452 1451 1450 1449 1448 1447 1445 1444 1442 1441 1440 1439 1439 1440 1441 1442 1443 1443 1444 1444 1445 1445 1445 1446 1447 1447 1448 1449 1451 1451 1451 1451 1451 1450 1450 1450 1450 1451 1452 1453 1454 1456 1457 1458 1459 1460 1461 1462 1463 1464 1465 1467 1469 1470 1471 1472 1473